Showing default

QIANFAN-31, 61564

Orbit data source: Space-Track

QIANFAN-31, 61564 is a Chinese payload satellite in LEO that was launched on Tue, 15 Oct 2024 UTC via a CHANG ZHENG 6A launch vehicle from the Taiyaun Space Center, China (TSC). Payload-class satellites include a variety of spacecraft equipped with specific instruments for various scientific and technological missions. These include communications satellites like Starlink; space stations such as the ISS; scientific satellites like the Hubble; Earth observation satellites from companies like Planet Labs, Umbra, and HawkEye 360; GPS; miniature CubeSats for education and research; and military/defense satellites.

Loading next visibility...
Identifier
61564, 2024-185N
Orbit
LEO
Country
Flag of CNCN / PRC
Related business
Manufacturer
GESIH/SECM
Mission
Operational Commercial Communications
Bus & Motor
QIANFAN, Unknown motor
Mass
267 kg wet, ~267 kg dry
Launch date (UTC)
2024-10-15 (1 year ago)
Launch vehicle
CHANG ZHENG 6A
Launch site
Taiyaun Space Center, China (TSC)
Object type
Payload
Rocket body
Debris
Shape & HBR
Box + 1 Pan, 5.0 m
Radar Cross Section
13.200 m², Large (>1 m²)

Expand to show TLE details & history
Last TLE update: 9 hours ago

TLE from 9 hours ago
0 QIANFAN-31
1 61564U 24185N   25311.24038777  .00000288  00000-0  38261-3 0  9993
2 61564  88.9768  84.3423 0008620 127.9862 232.2073 13.57945030 63347
Epoch: 2025-11-07T05:46Z
TLE epoch observation values (Epoch: 2025-11-07T05:46:09.503Z)
Latitude
Longitude
-48.88449°
Altitude
1,050.057 km
Speed
7.325 km/s
True Right ascension
05h 37m 22s
True Declination
0° 00' 00"
Sunlit
Object was in full shadow at epoch
Visualization orbit readout
Latitude
Unknown
Longitude
Unknown
Altitude
Unknown
Speed
Unknown
Apparent Right ascension
Unknown
Apparent Declination
Unknown
Sunlit
N/A
Visualization observer readout
Local Sidereal Time
10:58:16
Azimuth
Unknown
Elevation
Unknown
Doppler factor
Unknown
Orbital elements
Apogee altitude
1,046.605 km
Perigee altitude
1,033.816 km
Semi-major axis
7,418.348 km
Eccentricity
0.00086
Inclination
88.9768°
RAAN
84.3423°
Arg. of periapsis
127.9862°
True anomaly
232.12929°
Mean anomaly
232.2073°
Eccentric anomaly
232.16829°
Mean motion
3.3969 °/min
Orbital period
105.98 mins
BSTAR
0.00038261
Loading maneuver chart data...
Computing Atmospheric mass density...
Loading historical data...
Loading historical data...
Loading historical data...
Loading historical data...
Loading historical data...
Loading historical data...
Loading historical data...

Documentation

Showing up to 5 results
|